THOR ABLESTAR DEB, 672

Orbit data source: Space-Track

THOR ABLESTAR DEB, 672 is space debris in LEO originally from a launch on Sat, 28 Sep 1963 UTC launched from the Air Force Western Test Range (AFWTR). Debris objects in space refer to the collection of defunct objects orbiting the Earth. Examples of debris include non-operational satellites, rocket bodies, and fragments generated from explosions, collisions, or faulty payload assembly.

Loading next visibility...
THOR ABLESTAR DEB details
Identifier
672, 1963-038D
Orbit
LEO
Last TLE update16 hours ago
Origin
Flag of USUSN BuWeps (US)
ManufacturerUnknown
MissionSpacecraft
Bus & MotorUnknown
MassUnknown
Launch date (UTC)
1963-09-28 (61 years ago)
Launch vehicleUnknown
Launch site
Air Force Western Test Range (AFWTR)
Object type
Payload
Rocket body
Debris
Shape & HBRUnknown
Radar Cross SectionSmall (<0.1 m²)

Expand to show TLE details & history

TLE from 16 hours ago
0 THOR ABLESTAR DEB
1 00672U 63038D   24355.94568470  .00001146  00000-0  13384-2 0  9990
2 00672  90.0003 336.3268 0025771 254.8564 132.8830 13.67836141 27550
Epoch: 2024-12-20T22:41Z
Definitive object data (Epoch: 2024-12-20T22:41:47.158Z)
Latitude27.99476°
Longitude-94.12376°
Altitude1,023.849 km
Speed7.336 km/s
True Right ascension22h 25m 18s
True Declination27° 51' 27"
Sunlit
Object was in daylight at TLE epoch
Visualization TLE readout
Latitude27.13142°
Longitude85.87657°
Altitude1,013.966 km
Speed7.345 km/s
Apparent Right ascension07h 18m 53s
Apparent Declination-7° 19' 26"
Sunlit
Object is in partial shadow
Visualization observer readout
Local Sidereal Time14:08:47
Azimuth272.347° WNW
Elevation-14.248°
Doppler factor1
Orbital elements
Apogee altitude1,023.399 km
Perigee altitude985.348 km
Semi-major axis7,382.511 km
Eccentricity0.0025771
Inclination90.0003°
RAAN336.3268°
Arg. of periapsis254.8564°
True anomaly133.09892°
Mean anomaly132.883°
Eccentric anomaly132.99101°
Mean motion3.42166 °/min
BSTAR0.0013384
Orbital period105.21 mins
Loading maneuver chart data...

THOR ABLESTAR DEB Visibility forecast

Observer location: undefined°, undefined

Span
Click to sort rows by Start time (UTC) header in descending order
Start Az.
Max El. time (UTC)
Max El. Az.
Max El.
End time (UTC)
End Az.
4 mins2024-12-21 21:33:33.047Z91.877° ESE2024-12-21 21:35:33.047Z73.175° E12.412°2024-12-21 21:37:33.047Z53.661° ENE
10 mins2024-12-21 23:15:33.047Z174.702° S2024-12-21 23:20:33.047Z7.36° NNE44.354°2024-12-21 23:25:33.047Z358.436° N
4 mins2024-12-22 01:04:33.047Z270.136° WNW2024-12-22 01:05:33.047Z279.978° WNW12.801°2024-12-22 01:08:33.047Z308.824° NW
9 mins2024-12-22 10:17:33.047Z32.768° NE2024-12-22 10:21:33.047Z85.713° E27.499°2024-12-22 10:26:33.047Z142.677° SSE
9 mins2024-12-22 12:02:33.047Z337.529° N2024-12-22 12:06:33.047Z280.678° WNW32°2024-12-22 12:11:33.047Z218.255° SW
|